Location: LDNL
(36.4545°S, 141.6685°E)
Time: 17:11:29
(UTC+10:00)

Courier 1B - Pass Details

Date: 11 August 2022
Orbit: 962 x 1209 km, 28.3° (Epoch: 25 September)

Event Time Altitude Azimuth Distance (km) Brightness Sun altitude
Exits shadow 04:23:33 29° 19° (NNE) 1,999 9.1 -36.1°
Drops below altitude 10° 04:27:54 10° 47° (NE) 3,053 10.5 -35.2°
Sets 04:30:53 0° 55° (NE) 3,977 11.3 -34.6°
